Theta_e
327 336 337 338 339 338 340 344 346 347 346 348 348 347 347 345 340 343 346 344 344 344 343 341 341 340 340 340 341 342 341 341 341 341 342 344 344 344 344 344 344 345 345 345 345 345 347 349 349 349 349 349 350 349 348 349 352 354 354 353 352 353 353 353 355 355 354 353 353 352 353 353 351 348 347 349 351 352 353 354 354 354 354 354 354 354 353
331 336 336 337 337 336 338 339 342 345 346 346 347 346 345 345 344 344 343 341 343 344 341 340 340 340 341 343 342 341 339 338 339 340 341 342 343 344 344 344 344 344 344 344 343 344 345 347 348 349 348 349 348 345 346 349 352 355 355 353 351 351 352 354 354 354 354 354 354 353 352 352 349 347 346 347 349 350 353 353 353 354 354 353 353 353 352
326 333 339 337 336 336 338 337 338 342 345 345 345 345 344 345 345 344 342 343 344 342 341 340 340 340 342 342 341 341 339 337 337 338 339 340 341 343 343 344 343 343 343 343 343 343 344 345 346 347 348 349 347 345 346 349 351 353 353 352 349 347 349 353 352 353 354 354 354 353 352 350 348 346 346 347 348 350 352 352 353 354 354 352 352 352 352
320 325 335 337 338 339 338 338 338 340 345 347 346 343 342 344 346 345 344 344 344 343 341 341 340 340 341 341 341 341 340 337 336 336 337 339 340 341 342 343 344 343 343 342 343 343 344 344 344 346 347 349 348 348 348 349 351 353 353 351 348 346 348 351 350 351 352 352 352 352 351 350 348 347 347 347 348 349 350 351 352 352 352 351 351 351 353
320 322 332 336 339 339 339 340 338 337 341 344 345 342 340 341 344 345 345 344 343 343 341 341 340 340 340 341 340 340 340 339 337 336 336 337 338 340 342 343 343 343 342 342 343 344 344 344 344 345 346 347 349 350 349 350 352 353 353 350 344 343 347 349 349 350 352 351 351 352 351 350 349 348 348 348 349 350 350 349 350 350 350 350 350 351 352
321 329 336 334 334 336 339 341 338 336 338 341 344 343 340 341 343 343 344 344 343 342 341 341 340 339 340 340 338 339 341 340 339 338 337 337 338 339 341 342 343 343 342 342 343 343 343 344 345 346 346 346 348 350 350 351 353 353 354 350 343 341 347 349 350 350 351 352 352 352 350 348 347 347 348 349 350 349 349 348 348 349 350 350 351 351 351
324 337 341 330 330 336 341 342 341 339 337 339 342 340 337 339 341 341 342 342 342 342 342 341 340 338 339 340 338 340 342 341 339 338 337 337 338 339 341 343 343 342 342 343 343 342 343 344 345 346 347 345 346 349 350 352 352 353 354 353 348 347 350 351 351 352 353 353 353 351 347 343 342 344 347 350 350 349 349 348 348 348 347 348 349 348 348
326 335 336 328 329 335 339 340 341 339 338 338 340 339 337 336 336 338 340 339 339 342 342 341 340 338 338 340 340 343 343 339 336 336 335 335 337 338 340 342 341 341 343 343 343 342 343 344 344 346 346 345 345 348 351 351 352 353 354 355 354 353 353 353 353 353 353 353 353 350 344 341 343 346 349 352 351 350 349 348 348 347 346 347 348 347 348
332 337 335 331 333 336 337 338 334 332 333 335 335 336 337 335 333 334 337 339 339 339 340 340 339 336 336 338 340 340 338 335 334 334 333 333 334 335 337 340 341 341 343 343 343 343 343 343 344 345 346 345 345 348 351 351 352 354 354 355 355 355 355 355 355 354 354 354 354 351 348 346 348 350 351 349 348 348 348 347 347 347 347 347 347 347 348
339 344 340 338 339 340 340 339 334 329 330 331 331 334 339 337 333 331 335 340 339 336 337 339 337 335 336 337 337 334 332 332 332 332 330 329 330 332 335 339 341 341 342 343 342 342 342 342 343 343 345 346 346 349 351 351 351 353 354 354 354 355 356 356 355 356 355 355 354 353 352 351 351 351 349 348 347 347 346 345 345 345 346 348 347 346 346
340 344 342 340 340 339 339 338 335 330 328 328 328 335 340 337 332 331 335 339 339 335 335 337 336 336 337 337 334 330 329 330 330 331 330 328 329 330 332 336 341 342 341 341 341 340 340 341 342 342 343 345 347 349 350 347 344 347 351 352 352 353 354 355 356 356 357 356 355 354 353 352 352 352 351 350 350 348 346 346 347 346 346 347 348 348 347
341 342 340 336 336 338 336 335 334 331 327 328 330 337 340 336 332 332 333 336 337 335 334 335 336 336 337 335 331 328 328 328 328 329 330 328 328 330 330 333 340 343 341 340 340 338 338 340 342 341 342 344 345 347 349 346 344 345 347 347 348 351 354 355 356 357 357 357 356 355 354 354 353 354 353 352 352 350 349 349 349 346 345 346 347 348 348
343 341 335 332 335 337 333 332 333 330 326 329 335 339 338 333 332 332 331 333 335 333 332 334 334 335 335 332 329 327 327 327 327 328 328 327 328 329 329 332 338 341 340 339 339 338 338 339 341 342 343 344 344 345 347 348 348 348 348 347 349 352 354 355 356 357 357 356 356 356 356 355 355 355 353 352 352 351 351 350 346 343 343 343 344 345 346
336 337 338 336 335 335 332 332 333 331 330 334 338 339 335 332 332 332 331 331 331 330 331 332 332 331 330 328 328 328 327 327 327 327 326 327 327 327 328 330 334 338 340 339 339 338 337 338 338 341 343 343 344 344 345 345 346 347 348 349 349 351 354 356 357 357 357 357 356 356 356 356 355 354 353 352 351 350 350 348 343 341 341 342 342 344 346
332 338 344 343 336 331 330 331 333 333 334 337 336 335 334 333 332 331 331 331 329 329 329 329 329 329 328 328 328 328 327 327 327 326 326 327 327 327 328 328 331 336 338 338 338 338 338 337 338 340 342 343 343 343 343 343 344 344 346 349 350 352 355 356 357 357 357 357 356 356 356 356 355 354 353 352 351 350 349 346 342 340 341 340 341 342 344
335 342 344 341 337 334 330 330 334 334 332 333 334 332 332 333 332 331 331 330 329 329 329 328 328 328 328 328 328 328 328 327 326 326 326 326 327 327 327 328 330 333 335 337 338 338 338 338 339 340 341 342 342 342 342 342 343 343 344 347 350 354 356 356 356 356 356 356 356 355 354 354 354 353 352 351 350 349 347 344 341 340 340 340 341 341 342
334 337 338 337 338 337 332 331 335 336 333 334 334 331 331 333 333 331 330 330 329 329 328 328 328 327 327 328 328 327 327 327 326 326 326 326 327 327 327 328 329 330 332 335 337 337 338 339 339 340 340 340 340 341 340 341 342 343 344 346 348 351 354 355 355 355 355 355 354 354 354 353 353 352 351 350 349 346 343 342 341 341 341 340 340 341 341
329 329 330 331 333 335 333 332 335 335 335 334 332 331 332 333 332 330 329 329 329 328 327 328 328 327 327 327 327 327 327 326 326 326 326 326 326 327 327 328 328 329 330 332 334 336 338 338 339 339 339 339 339 340 339 340 341 341 343 345 347 349 351 353 354 354 355 354 354 353 353 353 352 352 351 350 349 346 342 341 341 341 341 341 340 341 341
331 331 331 331 332 333 333 334 335 333 334 333 331 331 331 331 329 329 328 328 328 327 327 328 327 327 327 327 327 327 327 327 326 326 326 326 326 326 327 328 327 328 329 331 333 335 337 338 338 338 338 339 339 338 338 339 340 341 342 343 346 347 349 351 352 353 353 353 353 353 352 352 351 351 350 349 348 345 341 341 340 340 340 340 340 340 340
334 332 332 334 334 331 331 334 334 332 332 332 330 330 329 329 328 327 326 326 327 328 327 327 327 327 327 327 327 327 327 327 326 326 326 326 326 327 327 327 327 327 328 329 331 334 336 339 339 338 337 338 339 337 337 338 339 340 342 342 344 346 348 349 350 351 352 352 352 352 351 350 350 349 349 349 347 345 343 341 341 340 339 339 339 339 339
339 332 329 334 337 334 333 335 334 332 331 330 331 330 329 328 328 327 325 326 326 326 327 327 327 327 327 327 327 327 327 327 326 326 326 326 326 326 327 327 327 326 327 328 331 333 336 338 339 338 337 338 338 338 338 339 338 338 339 341 342 343 345 347 348 349 350 351 351 350 350 349 348 347 347 347 346 345 344 343 342 341 339 339 338 338 338
341 337 332 335 337 336 335 334 332 332 330 329 331 332 330 329 329 329 328 327 326 326 327 326 327 327 327 327 326 326 326 326 325 325 326 325 326 326 327 327 327 327 328 329 331 334 336 338 340 339 336 335 337 337 338 339 339 339 339 340 340 340 342 344 346 347 349 349 349 349 348 347 347 346 345 345 345 344 344 342 342 341 339 339 338 338 337
341 339 337 335 334 335 336 335 333 332 330 329 331 332 330 330 328 327 328 328 328 328 327 326 327 327 326 326 326 326 326 326 325 325 325 325 326 327 328 328 328 329 330 330 331 333 334 335 338 339 337 332 332 335 338 339 340 341 341 339 339 339 340 342 344 346 347 347 348 348 347 347 347 346 345 344 344 343 343 343 342 341 340 339 338 337 336
336 335 337 335 332 333 335 333 333 330 327 328 331 330 328 328 326 325 327 329 328 328 328 326 326 326 326 326 326 326 326 326 325 326 327 327 328 329 329 329 329 330 330 330 330 331 333 333 334 338 338 333 328 332 337 337 338 341 342 340 339 338 338 340 341 342 344 345 346 346 346 345 345 345 344 344 344 343 343 343 342 342 341 340 338 337 336
332 333 335 333 333 334 333 330 329 327 323 324 328 328 326 326 326 326 327 328 327 327 327 326 326 326 326 326 326 326 326 326 326 327 329 330 330 329 330 330 330 330 330 330 331 332 333 333 334 336 339 336 331 331 334 334 335 337 338 339 340 339 338 338 339 339 341 342 343 344 344 344 344 344 344 344 344 343 343 343 343 342 342 340 339 338 337
333 332 332 332 333 333 330 328 330 329 324 323 325 325 324 324 326 327 327 326 326 326 326 326 326 326 326 326 326 326 326 326 327 329 329 329 328 329 329 330 330 330 330 331 332 332 333 335 335 337 339 339 336 335 335 334 333 332 331 335 341 342 339 338 338 338 339 339 340 341 342 342 343 344 343 344 344 342 341 341 341 342 342 341 340 339 339
335 333 331 332 334 334 331 329 329 326 322 321 323 324 323 323 324 325 325 325 326 326 326 326 326 326 326 327 327 327 327 327 328 328 328 328 328 329 329 330 330 330 330 331 332 332 333 335 337 338 339 339 338 339 338 337 336 334 331 334 340 343 342 340 339 338 338 339 339 339 340 340 341 341 342 343 343 342 341 340 339 340 341 342 341 340 339
336 332 327 328 332 332 329 326 323 321 321 322 322 322 322 322 324 325 326 326 326 326 327 327 327 327 327 327 327 327 327 327 327 328 328 328 328 329 329 330 330 330 330 331 331 332 333 335 337 338 339 338 338 338 338 338 338 337 335 335 338 341 342 342 341 340 340 339 339 339 340 340 340 339 339 339 339 340 340 340 339 339 339 340 340 340 339
338 333 328 327 326 324 325 325 324 325 324 322 321 322 322 323 326 326 326 326 326 326 327 328 327 328 328 328 328 328 328 328 328 328 328 328 328 329 329 330 330 330 330 331 332 332 332 334 336 337 337 337 336 336 337 338 338 338 338 337 337 339 340 341 342 342 341 340 340 339 339 339 339 339 338 338 338 339 340 340 340 339 337 337 338 338 338
339 336 334 331 325 322 326 330 329 330 327 323 321 323 322 323 326 327 327 326 326 326 327 328 328 328 328 328 328 328 328 328 328 328 328 328 327 328 329 330 329 330 330 331 332 332 333 333 335 336 336 336 337 336 337 338 338 338 338 338 338 338 338 339 341 343 343 342 341 340 339 339 339 339 339 339 339 339 338 338 338 337 336 336 336 336 337
337 335 335 335 331 328 330 331 329 329 327 324 323 325 325 325 327 327 326 327 326 326 327 328 329 329 328 329 328 328 328 328 328 328 327 327 328 328 329 329 329 329 330 330 331 331 333 334 335 335 336 336 337 337 337 337 337 337 337 337 338 338 339 339 339 340 342 343 343 342 341 340 339 339 339 339 339 338 338 338 337 336 336 335 335 336 337
334 334 333 334 334 331 331 330 329 329 328 326 325 326 325 325 326 327 327 327 326 326 327 328 329 329 329 328 329 328 328 328 329 328 327 327 328 329 329 329 329 329 330 330 331 330 331 333 334 333 333 334 336 337 338 337 337 336 337 337 337 339 340 340 340 340 340 341 342 343 343 342 341 341 341 340 339 339 339 339 339 338 337 335 335 335 335
332 333 332 331 331 330 330 330 328 328 327 326 325 324 322 323 324 325 325 326 326 326 327 328 329 329 328 328 328 329 328 328 328 328 328 328 328 328 329 329 329 329 330 330 331 330 331 332 333 333 332 332 333 336 338 338 337 337 337 338 339 339 340 341 341 341 342 341 342 342 342 342 342 343 342 341 339 338 338 339 339 338 338 337 336 335 335
329 330 329 327 327 326 328 328 328 327 326 324 322 321 322 323 323 324 325 326 326 326 327 328 328 328 328 328 328 328 328 328 328 329 329 328 328 328 328 328 329 329 330 331 331 331 330 331 332 332 332 331 331 335 338 339 338 336 337 339 340 340 340 340 341 341 341 341 341 342 343 343 343 342 342 341 339 337 336 337 337 337 337 338 338 337 337
324 324 323 322 321 321 322 324 326 326 326 325 324 322 322 323 323 324 326 326 326 326 327 328 329 328 328 328 328 328 328 329 328 328 328 328 328 328 328 328 328 329 329 331 331 331 331 331 332 333 334 333 332 334 337 340 339 338 337 338 339 340 340 340 340 340 340 341 341 341 342 343 343 342 342 342 340 338 337 337 337 337 338 339 341 341 340
322 322 321 321 321 321 320 321 321 321 322 323 323 322 322 323 324 325 325 326 326 327 328 328 328 328 328 328 328 329 329 329 328 328 328 328 328 328 328 328 328 327 328 330 331 331 331 331 332 334 336 337 336 335 337 339 339 340 339 339 339 339 340 341 341 341 341 341 341 341 341 341 342 342 343 343 342 341 340 340 340 340 339 340 342 342 341
322 322 320 320 320 321 321 321 321 321 321 321 322 322 323 324 324 324 326 326 327 328 328 329 328 328 328 328 328 329 329 329 328 329 328 328 328 327 327 328 328 328 328 329 330 330 331 332 332 333 335 336 337 337 337 337 337 338 338 339 339 339 339 340 340 341 341 341 340 340 340 340 341 341 341 342 343 343 342 342 342 342 342 342 342 340 339
322 321 321 320 320 321 321 322 322 321 321 322 322 323 323 324 324 325 326 328 329 329 329 328 328 327 327 328 329 328 328 328 328 329 329 328 328 328 327 328 328 328 328 329 330 331 332 333 334 334 335 335 335 336 337 336 335 335 335 336 337 337 337 338 338 338 338 339 339 339 339 340 339 339 339 339 341 342 342 343 343 343 343 343 341 340 339
320 320 320 320 320 321 321 321 322 322 322 322 322 323 324 324 324 325 327 329 330 330 328 327 328 328 328 329 329 328 328 328 328 329 329 329 329 328 328 327 327 328 328 330 331 331 332 333 334 335 335 335 335 335 335 335 335 334 334 334 335 336 336 336 336 336 337 337 338 339 339 339 339 338 338 338 338 339 340 342 342 343 343 342 340 340 340
319 320 320 320 321 321 320 320 321 321 322 323 322 323 324 324 324 326 328 330 330 329 328 328 328 328 328 329 328 328 327 328 328 329 328 329 329 329 328 328 328 328 329 330 332 332 332 333 334 334 335 335 336 336 336 336 336 336 336 336 337 337 338 338 338 338 338 338 339 339 339 338 338 338 338 338 337 338 338 340 340 341 342 341 340 340 340
319 320 320 319 320 320 320 320 321 322 322 323 323 323 324 324 325 327 330 330 329 328 328 328 328 328 328 328 328 327 327 327 328 328 327 327 328 328 329 329 329 329 330 331 332 332 332 332 333 333 334 335 335 335 336 336 337 338 338 338 338 338 338 338 338 339 339 339 339 339 338 338 338 338 337 337 337 337 338 338 339 339 340 340 340 340 340
319 319 320 319 320 320 321 321 321 322 322 323 323 323 324 325 327 330 331 329 328 328 328 327 328 328 328 327 327 327 327 327 327 328 327 327 327 328 328 329 328 329 330 330 330 330 331 331 331 333 333 334 334 335 335 335 336 336 336 337 337 337 336 336 336 337 337 337 337 337 337 337 337 337 337 337 337 337 337 338 338 338 339 339 340 340 340
319 320 320 320 320 320 321 321 321 321 322 323 323 324 325 328 331 332 330 328 328 328 328 328 328 327 327 327 327 327 327 327 328 328 327 327 327 327 328 328 328 329 329 329 329 330 331 331 331 332 333 333 333 333 333 333 334 335 335 335 335 335 334 334 334 335 335 335 335 335 336 336 336 336 337 336 337 337 337 337 337 338 338 339 339 340 340
320 320 320 320 320 321 322 322 322 321 322 323 324 324 327 330 332 331 329 328 328 328 328 328 328 328 327 327 326 327 327 328 328 327 327 327 327 327 328 328 329 329 329 329 328 329 329 329 329 330 331 331 331 331 330 330 331 332 332 332 333 332 333 333 333 333 333 334 334 334 334 334 335 336 336 336 337 337 337 337 338 337 338 337 338 338 338
320 321 320 320 321 322 322 322 322 322 322 323 324 326 328 331 332 332 330 328 328 328 328 328 328 328 327 327 327 327 327 327 327 326 326 327 326 327 328 328 328 329 329 328 327 328 328 328 328 329 329 329 329 329 329 328 329 329 329 329 330 330 331 331 331 332 333 334 334 335 334 334 334 335 336 337 337 337 337 337 337 337 336 336 336 336 336
321 321 321 321 322 322 323 323 323 323 323 323 324 326 329 331 332 332 330 328 328 329 329 328 328 328 328 327 327 326 326 326 326 325 325 326 326 327 327 328 328 327 327 327 327 327 327 328 328 328 328 328 328 328 327 327 327 327 328 328 328 329 329 330 330 331 331 333 334 335 335 335 335 336 336 337 336 336 336 336 335 335 335 335 335 335 335
320 321 321 322 322 323 323 324 323 323 323 322 323 326 329 331 331 332 331 328 328 329 329 328 328 328 327 326 326 326 326 325 325 325 325 325 325 326 327 327 326 326 326 326 326 326 327 327 327 327 326 327 326 325 324 324 324 324 325 325 326 328 330 331 332 332 332 333 335 335 335 336 336 335 335 335 335 334 335 335 335 335 335 335 334 334 334
321 322 322 323 323 323 323 323 323 322 323 322 323 326 329 330 331 331 330 328 328 328 329 328 328 327 326 325 325 325 324 325 325 324 325 324 324 324 325 324 324 325 325 325 325 325 325 325 325 324 325 325 324 322 322 322 322 322 322 322 323 324 325 327 328 330 331 331 332 332 332 332 332 333 333 333 334 334 334 334 333 332 332 331 331 331 331
322 322 322 323 323 323 323 323 323 322 323 323 324 328 331 330 330 331 330 328 327 328 328 328 327 327 325 324 324 324 324 324 324 323 324 324 323 322 322 322 323 324 324 324 323 323 323 322 323 324 324 324 322 321 320 320 320 319 319 319 319 320 320 321 322 324 325 326 326 326 326 326 327 327 328 329 329 329 329 328 328 328 328 329 329 329 329
322 322 322 323 323 323 323 323 323 323 324 325 327 330 332 331 331 331 331 329 327 327 327 327 326 326 325 324 323 324 323 323 323 323 323 323 322 321 320 320 321 322 323 323 322 322 322 321 321 321 322 322 320 319 319 319 318 318 318 318 318 318 318 318 319 319 320 320 320 320 321 321 322 322 323 324 323 323 323 323 323 324 324 325 325 325 325
322 322 323 323 323 323 324 325 324 323 324 326 329 331 332 331 331 331 331 329 327 327 327 327 326 325 324 323 323 323 323 322 322 322 322 322 321 321 320 320 319 320 320 321 320 320 320 319 319 319 320 320 319 318 318 318 318 317 317 317 317 317 317 317 317 316 316 317 317 317 317 317 318 319 320 321 320 320 320 321 321 321 321 321 321 321 322
322 323 323 322 323 324 325 326 325 325 326 328 330 331 332 332 332 331 330 328 327 327 327 326 325 324 324 323 323 323 323 322 322 322 322 322 321 320 320 320 319 318 317 317 317 317 317 317 317 318 319 320 319 319 319 319 320 319 318 317 318 318 319 320 319 317 315 316 316 316 316 316 317 318 318 318 319 319 319 320 320 320 320 320 320 321 322
Wind_Speed
4 6 6 6 8 6 4 5 6 7 8 9 9 6 5 4 5 2 3 6 8 7 10 12 12 11 10 10 12 12 12 12 11 11 12 12 12 12 12 12 11 10 10 8 8 11 11 9 9 10 11 14 14 4 4 10 19 24 27 26 24 26 28 29 29 27 25 25 26 24 24 25 23 17 14 18 21 18 16 15 14 14 13 13 13 12 11
5 4 3 4 7 7 6 7 6 5 7 8 7 6 6 6 6 3 2 4 6 5 7 10 10 9 7 6 7 9 12 13 13 12 12 12 12 12 12 12 12 11 10 10 10 12 13 12 12 11 10 12 9 2 7 17 21 21 23 22 19 18 21 24 25 24 22 23 23 22 23 24 21 15 16 21 21 19 18 17 13 12 13 15 15 14 13
3 3 3 4 6 8 8 7 7 6 6 6 6 6 5 4 4 3 3 4 4 3 5 6 7 8 8 7 7 9 10 13 15 13 12 12 12 12 11 11 12 11 11 12 12 13 14 16 17 15 12 11 7 2 9 17 20 19 19 18 15 13 17 23 22 20 20 20 19 19 21 22 19 15 16 19 19 18 18 16 14 14 15 16 16 15 14
1 2 2 3 3 7 9 8 9 8 6 4 4 5 5 3 3 4 5 4 3 5 6 6 6 6 8 8 9 9 8 12 16 15 14 11 10 12 12 11 12 12 12 12 13 15 16 17 18 19 17 13 9 5 7 14 18 17 17 16 14 13 18 22 19 18 18 17 17 18 18 18 16 14 15 16 16 15 14 14 14 14 14 15 14 14 14
2 4 3 2 2 6 5 4 4 5 4 4 3 4 5 4 2 2 4 2 2 4 5 6 7 7 7 6 6 6 6 9 13 15 16 13 10 10 11 11 12 12 12 13 15 17 18 18 18 19 19 16 12 8 7 12 14 16 16 13 12 12 18 19 18 18 16 14 16 16 16 16 14 13 14 14 14 13 11 11 11 11 12 12 13 15 17
2 4 0 2 3 2 2 3 2 1 2 4 4 2 3 4 2 1 0 2 4 4 4 5 6 7 7 6 4 5 4 4 7 11 14 14 12 10 9 10 11 11 13 16 18 19 19 19 20 20 19 16 13 10 9 10 11 14 15 11 12 13 17 15 16 16 14 15 16 15 14 14 14 14 15 15 14 11 9 9 9 9 11 13 15 17 17
1 2 4 3 1 3 4 3 2 1 1 5 6 3 2 3 3 2 1 3 5 5 5 6 6 7 8 6 5 6 5 2 4 8 10 12 12 11 10 10 10 12 15 18 20 20 20 21 21 21 20 17 13 10 9 9 10 12 14 12 12 15 15 14 16 17 16 17 17 13 12 13 14 15 15 14 12 9 8 8 8 9 13 15 16 14 13
1 2 4 1 3 3 3 4 3 2 3 4 4 3 3 3 3 2 3 4 5 5 7 7 6 7 8 5 4 6 5 4 4 6 9 10 11 10 10 10 12 15 17 19 20 21 21 21 20 20 19 16 12 10 10 10 10 11 13 14 15 17 17 17 18 19 19 20 18 14 13 14 17 16 13 12 11 8 7 7 8 11 14 15 13 11 10
1 2 2 0 1 3 3 3 3 1 1 1 1 1 2 2 3 3 4 5 5 5 6 7 8 8 7 5 3 5 5 4 4 5 8 10 11 11 11 13 16 18 19 19 20 22 21 21 19 18 18 15 12 9 9 11 12 12 14 15 17 18 18 17 17 17 18 19 18 15 14 15 14 12 10 10 9 8 7 8 9 11 12 12 11 10 11
2 4 2 2 2 1 3 5 6 3 2 4 3 3 2 4 4 4 3 4 6 5 5 7 8 7 5 5 5 4 3 5 6 6 9 12 14 14 13 13 16 19 20 19 20 21 20 21 20 18 17 15 12 9 9 10 12 13 14 15 17 18 18 17 16 15 17 18 16 14 13 12 11 9 8 8 7 7 7 7 7 8 9 10 9 9 10
2 4 3 1 1 2 4 6 8 6 3 3 3 4 1 4 4 4 3 4 6 6 6 6 6 5 5 6 6 6 7 8 7 7 9 12 16 19 19 16 15 17 20 20 20 20 19 19 20 18 17 16 12 9 7 6 10 13 14 15 17 18 18 18 16 15 16 17 15 13 12 11 10 9 8 7 6 5 5 5 5 5 6 8 8 8 8
2 3 2 1 2 2 4 5 7 7 3 2 4 2 3 4 4 4 3 4 6 6 5 5 3 3 4 6 8 10 11 10 9 9 10 12 15 19 21 19 16 17 19 19 18 19 18 17 16 16 16 16 13 11 8 4 7 12 15 16 19 19 18 17 16 16 16 15 13 12 11 10 8 7 7 6 5 5 5 4 3 3 3 5 5 5 4
2 3 1 1 1 2 4 5 7 5 2 5 3 2 5 4 5 5 3 4 6 6 5 5 3 4 6 8 10 12 12 11 11 12 14 16 17 20 22 21 17 17 19 18 16 16 15 13 13 13 13 13 12 11 11 7 5 8 12 16 18 18 17 16 15 15 15 14 12 11 10 8 6 5 6 6 7 8 7 5 4 5 5 4 4 4 4
2 2 1 1 2 3 3 4 6 3 2 1 2 4 4 3 5 5 5 5 6 6 5 5 5 7 8 10 11 12 12 11 10 12 15 16 18 21 24 23 20 17 18 18 17 15 13 11 11 11 10 8 8 8 9 10 9 9 9 11 14 16 15 14 13 13 13 13 12 10 8 6 5 5 6 6 8 8 8 7 7 8 7 5 5 5 5
1 2 2 2 1 3 3 3 4 3 2 3 4 3 2 4 4 5 5 5 5 6 6 7 7 8 10 10 10 11 11 11 10 12 14 15 16 19 21 22 22 19 17 18 17 15 14 11 10 10 9 6 5 5 6 7 8 9 9 9 10 11 11 11 11 10 11 11 11 9 7 6 5 6 7 7 8 8 8 8 9 9 7 6 6 6 7
2 2 0 2 3 4 3 1 1 1 2 3 3 2 3 4 4 3 4 5 6 6 7 8 9 9 9 10 10 10 11 12 11 11 13 15 18 19 19 22 23 20 18 17 18 17 14 11 9 9 8 8 7 7 6 6 5 5 6 7 8 8 8 8 9 10 10 10 9 8 7 6 7 8 9 9 9 8 8 9 9 8 7 6 7 7 8
2 3 4 4 4 3 3 1 3 4 3 3 3 4 3 4 3 3 3 5 7 7 7 8 8 8 9 10 10 10 11 11 12 12 13 16 19 20 21 22 22 21 19 18 18 17 15 11 9 8 8 8 9 11 11 9 7 5 4 5 7 8 8 8 9 10 11 10 9 8 7 7 8 9 10 10 10 9 9 9 9 8 7 7 8 8 9
1 1 2 2 1 2 3 2 3 3 4 3 3 3 3 4 4 4 4 6 7 8 8 8 8 8 10 10 11 11 11 11 12 13 14 17 20 22 22 22 22 22 21 19 17 16 14 11 9 9 9 9 9 11 12 11 9 6 3 3 6 8 9 9 10 11 12 11 10 9 8 7 8 8 9 10 10 10 10 10 9 8 8 8 8 9 10
1 1 2 2 2 3 3 3 3 4 4 4 3 3 4 5 5 5 6 6 7 7 7 8 9 10 10 10 10 10 10 10 11 13 14 16 20 22 22 23 23 22 21 19 17 16 15 12 10 9 9 9 9 10 11 11 9 6 2 2 4 6 7 8 9 10 11 12 12 10 9 9 8 8 8 8 9 10 10 9 8 7 7 8 9 10 11
1 2 5 5 4 3 3 3 3 4 4 5 5 4 5 6 6 7 8 7 6 6 7 8 9 10 10 10 10 10 9 9 10 12 14 17 20 23 24 25 23 20 19 19 18 17 16 13 10 8 8 9 9 9 11 12 11 7 5 3 3 4 5 7 8 9 10 11 12 12 11 9 8 8 7 7 7 8 9 8 7 7 7 8 9 10 11
2 2 3 4 4 3 2 3 4 4 4 6 6 6 6 6 6 7 8 8 8 8 8 9 9 10 10 10 10 10 9 8 10 13 16 18 21 23 24 24 22 20 20 20 19 18 18 16 11 8 7 8 8 8 10 12 12 10 7 5 3 1 3 6 7 8 10 11 12 13 13 11 9 8 7 7 7 7 7 7 7 7 7 7 8 9 10
2 2 2 0 1 1 4 5 5 5 5 5 6 7 7 7 8 8 9 10 11 11 11 11 9 9 10 10 11 10 9 10 13 16 17 19 21 23 23 23 22 22 21 21 19 18 18 18 13 8 7 9 9 8 8 8 9 9 8 6 5 3 1 5 6 8 10 11 11 12 13 12 11 9 8 7 7 7 6 7 7 7 7 8 8 8 8
4 5 5 3 3 2 5 5 5 6 5 3 5 7 7 7 8 8 7 9 10 10 12 14 12 10 10 13 13 10 10 14 17 18 18 18 19 22 23 21 20 22 23 22 20 18 18 18 15 10 6 9 10 9 7 6 7 8 8 7 6 4 1 3 7 9 10 10 11 12 12 12 11 10 9 8 7 6 6 6 6 7 8 8 9 8 7
3 4 4 4 3 3 5 5 5 6 6 4 5 8 8 7 9 10 8 8 10 9 10 14 16 14 13 15 14 11 11 16 19 19 19 20 19 21 21 18 17 19 20 21 21 20 19 19 17 13 7 6 9 8 7 7 8 8 7 6 4 3 2 3 5 8 9 10 10 12 12 12 11 10 9 9 8 7 7 7 8 9 9 9 9 8 8
2 3 4 5 4 5 5 5 5 7 7 6 5 7 9 10 12 13 10 9 12 11 9 11 16 17 17 16 16 14 14 17 19 19 18 19 19 20 19 17 16 17 19 20 21 21 19 18 16 15 12 7 7 8 6 5 6 7 6 6 5 4 2 2 5 6 8 10 10 11 12 13 13 11 9 7 6 6 6 8 10 11 11 12 11 11 10
3 3 2 1 1 3 3 3 4 6 9 10 6 8 13 15 14 15 15 14 15 15 12 12 16 19 18 17 17 16 16 17 19 18 16 16 17 18 18 18 19 19 20 20 20 20 19 16 13 13 13 11 7 7 5 4 4 5 6 6 5 4 3 1 3 5 7 8 9 9 10 10 12 12 11 9 7 6 6 8 10 12 13 14 14 14 14
2 2 1 3 4 4 3 2 4 7 12 14 11 11 16 19 16 16 17 16 16 16 14 14 17 18 18 18 17 17 17 17 17 17 15 15 16 18 19 21 21 20 20 20 19 19 18 15 11 11 13 12 10 9 6 4 3 4 6 7 7 5 2 2 0 2 4 5 7 7 7 7 9 10 11 11 11 9 8 8 10 14 16 16 16 16 17
2 2 1 1 2 5 5 6 8 10 12 13 12 13 16 17 14 12 12 12 14 15 15 16 17 16 16 17 16 16 16 15 15 15 15 16 18 20 21 22 22 21 19 19 18 17 17 14 11 10 12 12 12 10 8 6 5 4 6 8 9 8 6 3 2 2 2 2 2 3 3 4 4 5 6 7 7 7 7 7 9 14 19 19 18 17 17
3 2 1 2 5 6 7 8 8 8 10 12 13 13 13 11 9 8 9 9 11 12 13 16 17 16 15 16 16 14 14 14 14 15 17 19 21 21 21 21 22 20 18 16 15 15 16 15 12 11 11 11 11 10 8 7 6 6 7 9 10 6 3 3 3 3 2 1 1 2 3 2 2 1 2 3 4 5 6 6 8 12 17 20 19 18 18
4 2 2 4 4 3 4 6 6 6 8 10 10 10 10 8 7 8 9 10 9 9 11 15 16 16 16 16 16 15 16 16 17 18 19 20 21 21 20 20 19 16 15 15 16 16 16 16 15 13 11 10 9 9 8 6 6 7 7 8 8 8 6 4 4 3 3 2 1 2 4 4 3 3 3 3 3 2 1 4 6 10 15 20 21 22 22
4 4 4 5 4 3 4 5 5 6 7 7 7 9 9 8 8 9 9 9 8 10 13 15 15 15 16 17 17 18 19 19 19 19 19 20 20 19 18 17 15 12 12 14 16 16 16 16 15 13 11 10 8 8 7 6 6 7 7 7 9 11 11 10 10 9 9 8 6 5 4 3 3 3 5 6 5 3 4 6 8 11 15 19 24 26 26
4 6 6 5 5 5 5 5 5 6 7 7 7 8 9 8 9 9 9 9 10 12 14 14 14 15 18 19 19 19 19 19 19 18 18 18 18 18 17 17 15 14 14 15 15 15 15 15 14 12 11 10 9 8 7 7 7 7 6 6 8 11 12 12 12 12 12 12 11 11 11 10 9 9 9 8 5 4 5 8 10 13 15 19 25 28 26
3 5 6 5 5 5 6 6 5 6 7 7 7 9 10 10 10 9 10 12 13 13 13 14 15 17 19 19 19 18 18 18 17 16 15 16 17 18 18 17 16 15 16 16 15 14 13 13 12 11 10 10 9 8 6 6 6 6 5 5 5 5 6 7 9 9 10 11 11 11 11 10 10 11 11 10 8 5 6 9 12 15 17 20 24 25 24
4 5 6 6 6 6 6 6 6 6 7 8 9 11 12 12 12 13 13 14 13 12 14 16 17 19 19 18 18 17 16 14 12 13 15 16 17 18 19 18 17 16 15 15 15 14 12 11 10 10 10 9 9 8 7 6 6 6 5 6 6 5 3 2 4 5 7 8 9 9 8 8 9 11 13 13 10 7 8 11 15 17 18 20 21 22 22
6 7 9 9 9 9 9 7 7 7 7 7 8 10 12 14 15 15 15 14 14 15 17 18 18 18 18 17 17 16 15 13 13 15 16 17 17 18 19 18 17 16 15 15 14 12 10 9 8 8 8 8 8 8 7 6 7 7 7 7 7 7 7 6 6 6 7 8 8 8 9 10 11 11 12 12 12 10 11 14 16 18 19 20 21 22 25
5 6 8 10 11 11 11 10 11 10 9 8 9 11 14 16 16 15 15 17 18 18 18 17 17 16 16 16 17 16 16 15 16 16 16 16 17 18 17 15 15 14 14 14 13 12 11 10 8 7 8 8 6 6 6 6 6 7 8 8 9 9 9 10 10 10 10 9 9 9 9 9 10 11 12 12 13 13 13 15 17 18 20 21 22 24 25
8 7 8 11 12 13 13 14 15 14 13 13 13 13 14 17 18 17 17 18 18 18 17 16 15 15 15 17 18 18 16 16 16 16 16 16 16 16 14 13 13 12 11 12 13 13 13 12 9 8 8 8 6 4 4 5 5 6 7 9 10 11 11 12 12 12 13 12 12 11 11 10 10 11 11 12 13 14 16 17 19 20 22 23 23 23 23
12 12 11 12 13 13 15 17 18 16 14 14 15 16 16 17 18 17 17 17 18 18 17 16 15 15 16 17 17 16 16 17 17 16 16 15 15 13 12 11 11 10 10 11 12 13 12 11 10 8 8 7 7 6 6 6 6 7 8 10 12 13 13 14 15 15 15 15 15 14 14 13 13 13 12 12 13 14 15 17 18 20 22 23 22 21 22
12 14 14 14 14 14 16 18 20 19 16 13 14 17 18 18 17 16 15 16 17 17 16 16 16 16 16 16 14 14 16 18 17 17 17 16 15 13 11 11 11 12 11 11 11 11 10 10 10 9 8 7 7 7 7 7 8 9 10 12 13 14 15 16 17 17 18 17 17 16 16 15 16 15 15 14 14 14 14 15 17 19 21 21 20 20 21
10 13 15 15 14 15 16 17 18 21 20 17 15 16 17 18 16 15 14 16 17 16 15 16 16 15 15 15 15 15 17 18 18 18 18 17 15 13 11 11 14 15 12 10 10 10 9 9 9 8 7 6 6 6 6 6 6 7 8 9 11 12 13 15 16 17 18 18 17 17 17 17 17 18 17 16 15 15 15 15 16 18 20 20 19 18 19
12 14 15 14 14 15 16 16 17 20 22 20 17 16 16 16 14 13 13 14 16 15 13 14 15 15 15 15 15 16 17 18 18 17 17 16 15 13 10 12 17 18 14 11 11 10 9 9 8 7 5 5 5 6 7 7 6 6 6 7 8 9 10 11 13 14 15 15 16 17 17 17 18 17 17 16 16 15 15 15 16 17 19 19 18 18 18
14 15 15 14 15 16 17 16 16 18 20 20 19 17 17 14 11 10 11 13 13 13 12 12 13 14 15 15 15 15 16 16 16 16 16 15 14 11 10 14 20 20 15 11 10 9 9 9 8 7 6 7 7 8 8 8 8 8 8 8 9 9 10 10 10 11 11 11 12 13 13 13 14 14 15 15 15 14 14 15 16 16 17 18 18 18 18
16 15 14 14 15 16 17 17 16 16 18 20 19 17 15 12 8 8 9 11 11 11 11 12 13 13 14 15 14 14 14 14 15 16 17 17 16 14 15 18 20 18 13 12 12 12 12 11 10 9 8 8 8 8 9 8 8 9 10 11 12 12 12 12 12 11 11 11 12 12 12 12 12 13 13 13 13 14 14 15 16 16 16 17 17 18 18
17 16 15 15 16 17 17 17 15 15 16 19 19 17 12 8 6 7 9 10 10 10 10 11 12 13 13 14 14 14 14 13 14 16 17 16 16 19 21 21 18 16 15 15 16 16 16 15 13 11 10 11 10 11 11 10 8 9 10 10 11 11 12 12 12 11 12 12 12 12 13 13 13 13 13 13 14 14 14 13 14 14 14 15 16 17 18
17 17 16 16 16 16 16 16 15 16 17 18 18 13 8 5 6 8 8 9 9 9 9 10 11 12 12 12 13 14 13 12 13 15 14 11 11 16 21 21 18 16 17 17 17 17 16 15 13 12 12 12 12 11 11 11 10 9 10 10 10 10 10 10 10 9 10 10 10 11 12 12 13 13 12 12 12 11 11 11 11 12 13 14 15 16 16
17 18 17 15 15 16 17 16 16 16 16 15 13 10 7 5 7 8 8 8 8 8 8 9 10 10 10 10 12 13 13 12 12 13 13 12 11 14 18 19 17 16 16 17 18 18 16 14 13 13 13 12 12 12 13 13 13 12 10 9 9 9 9 9 9 8 7 8 8 9 9 9 10 10 10 10 10 10 9 9 10 10 11 12 13 14 15
16 17 17 16 16 17 18 18 17 16 13 10 9 9 8 7 6 6 7 7 6 5 6 8 9 8 8 9 10 10 11 12 11 12 13 14 14 14 16 17 16 15 15 17 19 18 16 14 14 14 14 14 15 16 16 16 15 15 13 12 9 6 4 4 4 5 5 6 6 7 7 8 9 9 9 8 7 6 6 6 7 7 8 9 9 9 10
15 15 16 17 17 17 18 17 16 14 13 11 10 10 8 7 6 6 5 5 5 5 6 8 8 8 9 10 9 8 8 9 8 9 12 15 15 15 16 16 15 15 14 15 17 19 18 18 17 17 17 18 19 20 19 18 18 18 17 17 15 13 10 8 6 4 3 1 1 1 1 1 1 1 1 1 2 2 2 3 3 3 4 4 5 5 6
15 14 15 16 16 16 16 15 13 13 14 15 14 11 8 7 6 6 5 4 4 4 5 6 7 8 8 9 9 8 7 7 6 8 10 13 14 15 16 16 15 15 14 14 16 18 18 18 18 18 19 21 22 22 21 21 20 21 21 21 21 20 20 18 17 16 14 13 12 12 12 12 11 10 9 9 8 7 6 7 7 8 8 9 9 10 9
14 14 14 15 16 16 15 14 13 14 17 17 14 10 8 7 7 6 5 4 4 4 4 5 6 7 8 8 8 7 6 6 7 8 10 11 12 14 15 15 16 16 15 14 15 16 17 18 19 19 21 22 23 24 23 23 22 22 22 22 23 23 24 23 23 22 21 20 20 20 19 18 17 16 15 15 14 14 14 15 15 14 14 15 15 15 15
13 13 14 15 16 16 16 15 14 14 16 15 13 10 9 8 8 7 6 4 3 3 4 5 5 6 7 7 6 6 6 6 7 8 9 10 12 13 14 15 15 16 16 16 16 17 17 18 19 20 21 23 23 23 23 24 24 24 24 24 24 25 25 25 25 24 24 24 24 24 23 22 22 21 20 19 19 19 19 19 19 20 20 20 21 21 21
14 14 14 14 15 16 18 17 16 14 13 12 11 10 8 7 8 7 5 3 3 3 4 4 5 6 6 6 5 5 5 6 7 7 8 10 12 13 13 14 15 16 16 16 17 17 17 18 19 20 21 22 23 23 23 24 24 24 25 25 26 26 26 25 24 24 24 24 24 24 24 24 24 24 24 23 23 23 23 23 23 23 23 23 23 23 23
Wind_Direction
65 117 111 99 100 90 68 53 39 29 31 48 64 52 22 62 97 71 2 33 41 14 354 347 341 347 347 336 337 339 338 340 344 350 357 358 356 353 350 349 346 343 339 333 332 326 318 310 292 278 271 264 256 221 158 218 226 232 234 226 216 213 213 216 222 228 232 234 237 240 241 248 249 236 225 233 237 239 243 242 242 240 230 221 227 236 237
57 75 90 109 107 94 66 40 29 37 51 60 68 57 48 76 88 51 2 54 54 18 346 333 324 327 328 321 332 339 338 338 341 351 356 353 350 346 341 339 337 338 335 331 332 330 327 325 313 299 288 281 278 214 221 237 238 241 241 231 217 212 217 223 225 224 226 233 240 245 250 255 253 238 231 233 231 234 241 242 242 242 234 230 232 234 234
29 11 44 87 102 101 82 44 20 25 43 52 53 42 35 57 63 24 23 65 52 343 323 320 316 327 336 337 342 346 343 339 340 347 350 348 345 338 333 332 332 335 337 335 336 335 332 329 323 316 310 306 311 265 228 235 237 238 237 226 207 201 223 231 225 222 228 237 244 251 256 255 249 241 238 234 231 235 240 241 243 246 243 236 233 232 233
214 252 156 125 92 85 72 39 13 8 18 39 40 31 26 20 3 1 24 45 4 316 321 327 327 340 344 336 333 335 337 341 342 340 339 340 339 331 329 329 329 333 336 336 336 334 331 330 327 324 321 320 325 317 254 245 242 236 232 217 190 195 229 236 230 230 234 238 243 246 249 246 240 238 239 235 232 235 239 242 245 244 240 233 230 232 233
212 239 198 183 36 47 34 356 350 354 14 44 45 30 21 3 344 17 28 26 284 291 314 325 329 336 332 325 324 319 322 339 341 333 329 330 331 329 327 326 327 329 331 331 331 331 330 329 328 327 325 320 319 321 291 262 249 241 235 210 176 207 241 244 242 242 236 230 237 242 241 241 240 237 236 235 234 235 236 237 236 237 235 229 226 228 231
243 269 5 63 41 44 264 262 250 285 20 57 77 57 13 359 20 79 173 261 269 284 298 302 309 313 310 309 304 289 291 325 329 320 319 320 323 326 324 324 324 323 325 329 330 332 333 332 331 331 329 321 314 314 304 279 259 252 246 213 183 219 245 244 238 236 229 226 231 233 236 243 247 239 232 232 232 229 225 220 220 228 231 228 226 227 230
248 323 43 49 307 239 239 273 288 256 97 101 108 94 40 29 35 35 321 299 294 296 293 284 283 290 290 289 282 276 276 288 299 304 310 315 320 325 326 325 322 319 322 327 330 333 334 334 335 335 332 326 315 312 311 295 271 258 251 230 204 212 220 219 222 225 225 226 225 221 226 238 239 230 226 231 236 238 239 232 228 231 231 230 230 227 222
299 27 56 117 244 267 303 323 322 349 50 78 89 53 18 35 38 1 341 325 298 290 293 292 293 295 292 285 261 255 263 273 277 295 312 318 319 320 317 313 309 311 316 321 326 331 333 335 339 342 340 333 319 311 315 307 284 259 246 233 219 212 207 207 215 220 223 224 221 212 208 215 219 218 220 232 242 248 249 235 226 227 228 228 225 214 203
143 99 75 33 325 338 341 330 312 328 353 311 137 158 288 348 31 6 335 325 309 298 296 300 309 311 309 307 267 229 238 269 277 288 305 311 311 310 306 301 305 312 315 321 329 335 337 341 346 351 349 342 328 315 314 307 287 259 240 229 221 217 211 206 210 216 218 221 219 207 196 201 208 212 217 229 231 222 214 210 215 222 222 220 217 207 201
88 97 84 32 18 312 266 274 284 283 243 236 174 142 256 310 1 8 342 326 323 321 310 309 318 328 332 319 294 265 280 312 318 311 307 309 313 317 314 304 309 320 324 328 336 341 344 347 350 355 355 350 340 330 324 315 295 268 247 237 229 222 212 204 205 210 211 212 210 202 193 189 189 194 205 214 213 203 198 203 216 223 217 209 207 205 205
52 96 112 144 177 220 241 262 285 306 294 233 127 93 299 293 328 352 352 329 320 321 315 314 327 341 332 306 293 303 318 324 323 312 307 312 317 324 328 322 315 321 329 335 341 346 350 352 354 357 358 355 349 345 346 325 289 272 261 252 243 233 221 209 202 201 203 203 201 196 190 181 175 181 187 190 194 198 200 205 212 217 209 197 193 196 203
55 92 104 183 191 223 249 264 285 301 306 113 91 53 270 271 305 325 334 313 302 300 304 313 326 316 295 289 294 306 314 316 314 308 308 312 314 319 328 330 325 324 331 338 344 346 350 353 358 3 1 358 354 346 341 315 257 255 256 254 251 244 231 214 200 195 196 199 197 194 187 177 170 174 176 171 170 175 178 181 184 186 183 174 173 180 186
40 75 92 286 250 226 250 279 290 300 11 75 83 231 237 264 306 305 295 291 287 285 294 303 290 257 263 278 291 300 306 310 313 314 314 315 316 318 324 330 331 328 331 337 342 345 349 355 6 13 12 9 2 342 329 328 301 266 254 251 251 246 234 217 202 192 190 193 197 196 187 175 165 169 174 169 167 167 164 161 162 161 150 141 146 158 162
31 72 103 333 301 233 236 284 301 320 75 105 232 232 230 259 291 298 298 288 282 282 282 275 270 273 278 285 292 298 304 306 309 315 317 318 321 321 323 329 332 331 330 331 336 343 347 351 5 15 19 22 14 347 331 335 335 319 292 265 250 241 232 218 203 191 183 183 187 187 180 171 167 169 169 167 169 167 163 169 176 171 161 156 157 158 162
89 53 51 44 296 245 252 314 339 17 98 204 235 251 275 274 280 293 295 286 287 292 286 277 279 285 288 291 293 296 301 303 306 311 313 314 315 315 318 323 327 328 327 325 327 333 337 343 1 13 13 12 13 359 345 344 337 328 317 293 260 242 233 218 205 193 181 172 169 169 168 169 172 169 166 167 170 169 172 181 182 176 171 173 173 170 169
122 80 47 207 206 240 272 6 117 188 206 220 217 224 273 284 284 280 277 282 287 288 286 286 288 288 288 291 292 294 298 302 305 308 309 310 312 313 314 318 322 324 323 321 322 324 325 334 356 12 11 4 3 3 1 1 353 336 319 295 265 244 232 218 204 193 178 163 154 154 159 167 171 169 169 172 173 174 180 182 181 184 190 191 188 184 181
172 175 211 225 223 254 289 211 183 214 256 256 219 218 251 273 271 268 284 293 291 291 291 290 290 289 288 290 292 294 296 297 300 304 305 305 306 308 311 315 319 321 320 318 318 318 319 324 337 357 10 9 4 1 1 5 9 358 325 282 254 231 216 206 198 188 176 164 157 156 159 167 174 174 177 182 182 181 183 183 187 198 206 205 202 195 192
286 227 228 242 267 299 297 252 218 243 269 266 253 256 266 272 277 281 284 283 286 292 294 291 290 290 290 291 294 294 295 297 300 303 304 304 306 307 308 313 317 320 320 319 316 313 313 317 326 339 355 4 5 359 358 8 17 11 338 278 252 229 208 198 195 187 178 169 163 163 164 168 179 185 188 192 192 189 188 190 193 199 205 208 209 205 203
21 337 283 260 256 273 276 273 285 294 286 276 284 288 276 280 291 292 286 285 287 289 287 287 288 289 291 294 295 295 296 297 300 303 303 304 304 304 304 308 313 316 316 316 314 309 305 310 320 327 339 354 3 3 4 13 18 8 344 284 252 234 210 198 197 191 183 175 166 163 166 172 179 187 191 195 197 194 192 191 190 193 203 211 215 216 217
158 226 252 266 275 267 243 241 280 305 309 301 299 291 278 282 288 287 287 290 291 290 290 289 288 288 291 293 294 296 298 296 296 299 300 299 301 302 304 307 311 312 310 310 311 306 299 303 312 320 334 351 359 7 17 23 21 10 356 329 262 224 195 188 194 196 192 184 171 162 165 173 177 181 185 193 200 204 208 210 209 210 216 224 230 235 236
313 265 275 310 340 345 316 286 285 291 301 306 307 304 298 295 296 297 298 297 294 292 293 292 291 292 292 291 292 295 296 295 295 296 297 298 300 301 304 308 311 310 307 307 308 305 301 302 304 312 338 353 353 1 18 26 28 27 15 349 319 242 169 171 184 192 193 189 178 165 162 166 171 176 182 191 198 206 219 233 242 246 248 251 254 256 252
308 255 251 263 69 308 288 290 295 292 289 297 305 310 311 309 307 306 306 304 302 298 296 294 293 292 292 294 296 295 293 295 296 296 297 300 301 302 307 312 313 311 308 307 307 307 308 308 303 303 337 354 348 345 2 20 29 36 34 16 1 359 138 153 162 176 183 182 176 169 164 164 167 171 177 188 199 210 223 239 255 266 272 276 278 275 266
227 232 226 183 145 233 265 269 282 288 288 292 298 300 300 298 297 296 297 301 303 304 303 302 298 291 292 298 299 297 296 298 299 300 302 301 300 303 309 313 314 314 314 314 314 314 315 314 305 297 328 1 354 339 339 353 7 22 33 34 22 6 319 176 164 166 171 171 167 167 167 167 168 170 174 182 196 213 230 247 262 270 277 285 289 288 280
223 241 217 176 161 234 264 271 278 283 286 286 290 294 293 290 294 297 294 293 296 298 300 302 301 298 297 300 301 299 299 300 303 306 308 306 303 304 307 312 317 319 319 318 317 318 320 318 309 297 301 358 9 354 344 348 351 357 8 17 20 13 314 227 187 170 164 160 159 161 163 166 170 175 179 184 195 214 236 254 267 273 275 278 280 280 278
192 228 202 180 194 231 257 277 277 277 286 289 282 290 295 296 300 303 302 299 300 299 297 300 304 305 304 303 303 301 300 301 304 306 308 309 309 307 309 316 324 327 325 322 318 319 322 322 315 300 288 306 5 16 15 7 356 345 341 341 340 338 312 223 190 173 160 152 152 157 161 163 167 171 180 196 211 229 247 259 265 268 270 271 269 267 265
212 238 222 165 232 257 290 319 300 292 306 310 302 294 300 304 307 306 305 304 301 300 297 299 306 309 307 303 303 302 301 302 305 308 309 309 309 309 311 316 322 326 328 325 320 320 324 326 321 304 289 291 323 356 5 3 359 351 335 314 295 297 307 258 168 153 147 145 145 151 161 171 175 174 177 189 208 232 259 274 275 272 271 270 267 263 259
228 244 356 33 348 315 318 318 291 294 306 309 305 301 305 309 310 307 305 306 307 305 304 304 307 309 308 307 307 306 305 306 307 309 310 308 306 308 311 315 319 322 324 324 321 319 322 326 320 304 295 297 308 317 314 306 320 345 330 296 257 233 241 279 304 99 117 135 141 146 162 188 200 199 194 192 196 211 233 260 277 280 278 274 269 264 261
255 240 159 114 276 278 283 290 291 294 300 303 302 302 305 310 312 309 306 310 314 314 313 313 313 311 308 309 310 308 307 308 307 307 308 307 306 309 312 315 318 320 319 319 318 316 319 325 319 301 299 309 317 315 307 301 307 328 322 290 258 221 187 177 164 116 113 144 159 165 176 182 192 207 209 201 197 204 219 240 265 276 279 277 271 265 261
269 264 227 228 245 263 287 302 306 305 306 309 311 309 307 310 312 307 304 309 313 313 314 315 315 311 307 307 308 307 306 306 304 303 305 305 305 308 312 314 317 320 320 319 320 318 319 321 319 309 307 318 326 324 317 311 311 315 309 291 276 258 206 139 130 135 146 179 204 217 226 217 194 182 176 178 188 198 212 234 257 272 278 277 271 262 257
279 310 315 290 278 279 297 306 308 302 302 309 314 311 308 307 305 302 304 309 311 310 310 311 312 312 311 309 309 308 307 305 303 302 304 304 305 307 311 313 316 321 323 324 325 324 322 319 316 313 315 318 321 322 319 309 299 298 298 302 311 321 336 3 33 44 30 21 89 190 208 219 227 233 229 229 237 241 266 280 282 281 281 279 272 264 258
303 327 326 310 310 311 300 299 297 293 295 303 310 310 311 313 311 307 307 309 310 309 309 309 310 313 315 313 311 310 307 304 303 303 304 305 307 309 311 312 311 310 311 314 318 320 322 321 319 320 324 322 314 311 314 309 300 297 303 326 346 351 352 358 8 11 3 357 352 337 319 319 324 309 286 279 286 312 325 312 299 290 283 278 272 266 261
335 334 330 319 316 314 305 298 297 300 304 310 312 310 308 307 305 303 302 305 306 306 306 307 310 315 316 314 311 309 307 305 304 305 305 307 310 313 316 314 310 304 303 306 310 312 315 318 321 325 328 326 316 308 307 304 300 298 301 325 350 357 358 360 3 2 354 347 341 336 334 335 333 322 306 296 291 280 268 268 272 275 275 274 272 270 266
333 323 315 307 309 313 310 305 303 303 303 303 300 297 297 297 297 294 295 300 303 305 306 307 311 316 317 314 310 308 308 308 307 306 307 310 314 317 318 317 314 310 308 307 307 305 304 309 315 316 314 313 311 307 297 288 287 286 279 283 305 332 350 358 359 353 342 333 328 327 329 326 316 303 293 287 285 284 274 262 256 255 256 258 263 268 270
241 256 265 269 271 278 285 290 297 300 297 296 296 296 299 302 303 301 301 303 305 305 306 309 313 317 318 315 312 312 313 315 316 313 311 313 316 318 320 319 316 314 314 313 309 303 296 295 299 299 294 291 289 288 283 270 261 260 257 259 265 269 281 316 327 315 305 302 301 299 296 290 285 283 281 276 268 257 251 253 253 250 249 251 257 266 271
252 257 269 271 267 265 265 270 281 287 289 294 298 300 302 305 306 306 308 309 307 307 310 313 316 318 316 313 312 313 313 317 322 318 313 313 317 320 321 321 318 316 317 320 320 316 307 297 291 291 294 288 273 267 271 265 249 238 232 237 246 250 247 245 248 256 265 274 278 271 260 256 259 263 267 269 267 256 247 251 256 258 256 259 265 270 271
281 269 280 288 289 288 285 284 286 287 285 287 292 296 301 305 307 309 311 311 309 310 314 317 316 314 312 311 310 309 310 315 320 320 316 315 319 321 321 320 319 316 315 318 328 336 330 314 298 290 295 294 280 261 258 259 251 237 225 223 227 231 233 234 237 242 250 254 257 257 256 254 256 255 252 252 255 254 249 252 257 258 256 255 257 261 263
305 295 290 295 300 301 299 298 298 296 293 292 293 295 298 303 308 312 312 312 313 315 316 314 312 311 312 312 311 312 315 319 322 324 323 323 325 325 321 319 319 315 308 311 324 332 328 316 304 289 281 281 276 258 243 243 249 243 231 224 223 223 225 228 231 235 239 240 241 245 247 248 251 254 251 245 244 241 238 239 245 250 253 255 255 254 256
307 308 304 302 304 303 302 304 306 303 296 294 298 301 302 305 310 314 313 314 318 320 317 314 315 316 316 315 316 320 326 328 330 333 333 333 332 328 321 317 316 312 308 313 323 327 324 320 316 307 293 284 275 262 248 243 248 250 244 238 234 230 229 229 230 231 234 236 237 240 241 242 245 249 250 249 248 245 241 240 243 249 254 257 257 257 258
309 311 309 309 310 308 307 308 310 308 303 298 297 302 309 314 316 316 315 317 323 326 324 323 325 325 323 324 328 332 333 335 339 341 340 340 339 332 323 323 327 324 319 320 322 320 318 318 317 313 309 306 298 285 271 259 255 254 251 246 242 240 237 236 234 233 233 234 235 237 239 241 244 246 247 248 249 250 249 248 249 251 253 253 254 257 261
305 303 304 307 309 308 306 306 306 307 309 308 301 303 312 318 318 317 317 321 327 332 335 335 333 331 330 334 337 337 338 343 347 349 349 350 348 340 330 333 339 338 332 327 324 323 323 320 313 307 309 311 306 301 295 283 271 262 255 247 245 247 247 245 242 239 236 234 233 234 237 241 244 247 249 249 248 250 252 252 253 255 257 257 256 257 261
298 299 301 304 305 304 302 302 301 305 310 313 313 314 319 321 318 315 317 323 329 335 343 346 341 337 337 339 340 342 346 349 352 355 359 358 352 344 338 336 338 339 338 334 331 332 334 328 317 310 315 316 304 295 293 290 284 279 268 256 251 253 255 253 251 246 242 239 236 236 238 242 245 248 251 252 251 253 257 259 261 263 264 265 264 264 265
300 301 303 303 304 303 303 303 303 305 309 313 319 325 327 326 321 315 319 328 333 337 344 351 351 347 346 346 347 349 353 351 349 353 359 357 347 338 332 335 340 344 347 347 344 348 352 347 337 328 325 322 313 306 302 297 289 284 279 272 268 267 264 263 263 261 258 256 253 251 250 250 250 252 254 256 257 260 264 267 268 270 271 271 272 272 272
301 302 302 300 301 303 305 306 305 304 306 313 322 329 330 327 324 323 327 335 340 339 342 348 353 353 353 352 350 348 345 343 346 350 352 351 348 346 345 347 353 1 11 15 18 23 23 14 2 350 341 335 329 326 323 313 297 286 281 277 275 274 272 270 270 269 268 267 266 267 266 264 262 261 261 261 264 269 272 273 274 276 278 279 280 280 280
303 302 299 298 301 304 306 308 308 306 306 313 323 330 329 325 328 335 336 337 339 341 341 343 346 347 349 351 351 347 341 343 352 354 349 344 346 352 357 3 12 20 23 23 26 28 24 16 7 0 357 354 348 342 337 330 316 302 295 288 283 279 277 275 274 273 273 272 272 272 270 268 267 266 267 268 269 270 271 273 277 282 286 289 290 290 290
302 302 301 302 305 307 307 308 310 310 310 312 320 329 333 329 330 339 342 337 334 338 343 344 343 343 345 349 353 353 351 353 358 359 354 346 342 347 356 7 19 24 24 23 24 24 20 16 13 11 7 2 358 357 357 354 346 334 323 313 303 295 290 285 282 278 275 275 276 277 276 274 270 267 267 267 267 267 270 275 281 286 291 293 295 297 299
302 305 307 308 310 314 317 318 318 318 317 315 319 332 348 344 333 337 345 341 333 337 345 347 346 348 353 355 355 353 352 355 1 5 4 360 351 351 359 9 15 19 24 29 28 23 19 17 18 20 21 19 19 23 25 22 15 7 356 343 328 314 303 296 291 286 282 283 284 284 279 273 268 264 265 268 270 272 276 281 284 290 295 298 301 305 308
303 306 311 315 319 323 327 329 329 329 328 323 318 326 340 343 334 333 344 346 340 340 347 349 350 357 4 4 2 358 354 352 358 8 14 13 10 10 16 18 15 13 22 32 33 28 26 28 31 34 35 36 38 40 40 39 38 36 34 32 26 13 343 304 284 277 275 279 283 281 273 267 266 268 273 280 286 289 291 295 299 305 310 311 313 318 322
304 305 311 318 322 326 332 335 334 331 329 323 315 317 327 333 326 325 339 348 343 342 349 351 351 357 5 6 6 7 4 357 356 9 21 26 27 27 29 27 21 16 21 31 34 31 29 33 40 44 46 48 49 48 46 46 47 49 50 50 52 53 57 63 72 82 91 92 39 13 1 340 318 305 314 15 20 354 322 316 330 0 20 26 30 33 32
307 309 314 320 324 327 332 334 331 326 323 320 317 317 322 323 315 315 328 338 334 337 351 354 350 353 2 7 7 9 15 21 22 23 27 34 38 39 38 37 33 28 28 33 36 35 32 34 40 48 55 57 56 54 51 49 49 51 52 53 54 56 59 63 69 75 78 77 75 74 75 76 79 86 91 92 88 85 82 82 84 85 85 86 86 86 85
311 313 316 320 322 323 324 322 319 318 320 319 316 314 315 312 306 306 312 317 318 327 343 351 350 351 360 9 15 19 27 36 39 35 36 41 45 46 45 45 43 40 38 39 42 44 43 41 43 51 59 61 59 57 55 53 51 51 52 54 56 58 61 63 67 70 72 73 73 76 78 80 84 88 90 91 91 90 89 90 91 93 94 95 94 93 93
308 309 311 314 318 320 321 318 316 319 323 322 318 312 307 300 298 299 301 296 294 311 329 341 350 356 2 11 21 31 36 37 36 36 39 43 46 47 48 49 50 49 49 48 48 51 52 51 50 54 60 62 61 60 59 58 56 54 54 55 57 60 61 63 64 66 69 71 74 77 79 82 86 89 91 91 91 91 91 92 93 93 93 94 94 95 96
306 308 311 313 316 322 325 326 328 333 337 333 324 316 307 296 294 296 290 276 281 312 330 342 352 358 4 14 28 43 45 41 36 36 40 43 45 45 46 48 51 54 55 54 55 56 57 58 58 60 62 63 64 64 63 63 62 60 58 58 59 61 63 65 66 67 69 73 76 77 79 82 86 88 88 88 88 88 89 90 91 91 91 92 93 94 95